Home > Time Zones > World Clock > Weather > Peru > Cuzco > Past weeks

Flag for Peru Weather past 2 weeks in Cuzco, Cusco, Peru

Now
72 °F

Scattered clouds.


Feels Like: 75 °F
Forecast: 41 / 62 °F
Wind: 8 mph from North

Location: Cuzco Airport


UV Index: 7 (High)

Visibility: N/A


Pressure: 30.36 "Hg

Humidity: 23%

Dew point: 32 °F

Location of CuzcoLocation

Historic Weather in Cuzco

°F

Cuzco temperature yesterday

Maximum temperature yesterday: 70 °F (at 2:00 PM)
Minimum temperature yesterday: 46 °F (at 4:00 AM)
Average temperature yesterday: 56 °F

Past Weeks' High & Low Weather Summary

 TemperatureHumidityPressure
High72 °F (Apr 8, 3:00 PM)88% (Apr 14, 6:00 AM)30.63 "Hg (Apr 14, 6:00 AM)
Low39 °F (Apr 6, 6:00 AM)27% (Apr 15, 3:00 PM)30.30 "Hg (Apr 15, 3:00 PM)
Average54 °F64%30.49 "Hg
* Reported Apr 1 1:00 PM — Apr 16 1:00 PM, Cuzco, Weather by CustomWeather, © 2014

Note: Actual official high and low records may vary slightly from our data, if they occured in-between our weather recording intervals... More about our weather records

Advertising

Historic Weather Conditions — Data for Previous 24 hours

 ConditionsComfort  
Time TempWeatherWind HumidityBarometerVisibility
1:00 PM
Apr 16
68 °FScattered clouds.5 mph28%30.39 "HgN/A
12:00 PM64 °FScattered clouds.5 mph32%30.42 "HgN/A
11:00 AM66 °FPassing clouds.No wind32%30.48 "HgN/A
10:00 AM63 °FPassing clouds.5 mph45%30.51 "HgN/A
9:00 AM57 °FPassing clouds.No wind59%30.51 "HgN/A
8:00 AM54 °FClear.No wind63%30.51 "HgN/A
7:00 AM46 °FPassing clouds.No wind76%30.51 "HgN/A
6:00 AM41 °FScattered clouds.No wind81%30.48 "HgN/A
5:00 AM43 °FPassing clouds.2 mph81%30.45 "HgN/A
4:00 AM43 °FPassing clouds.2 mph81%30.45 "HgN/A
3:00 AM45 °FPassing clouds.No wind81%30.45 "HgN/A
2:00 AM46 °FPartly cloudy.2 mph82%30.45 "HgN/A
1:00 AM48 °FPartly cloudy.No wind76%30.48 "HgN/A
12:00 AM48 °FPassing clouds.No wind76%30.48 "HgN/A
11:00 PM
Apr 15
46 °FPassing clouds.2 mph76%30.48 "HgN/A
10:00 PM48 °FPassing clouds.No wind71%30.48 "HgN/A
9:00 PM50 °FPassing clouds.3 mph67%30.45 "HgN/A
8:00 PM54 °FPassing clouds.No wind58%30.42 "HgN/A
6:00 PM61 °FPassing clouds.7 mph45%30.36 "HgN/A
5:00 PM64 °FPassing clouds.12 mph34%30.30 "HgN/A
4:00 PM68 °FScattered clouds.10 mph30%30.30 "HgN/A
3:00 PM70 °FScattered clouds.10 mph27%30.30 "HgN/A
2:00 PM70 °FScattered clouds.5 mph31%30.33 "HgN/A
Weather by CustomWeather, © 2014

See weather overview